This demonstration page uses our WeatherBlox Daily Observations layout. Learn more.

39.92423, -83.80882

Hourly Observations for April 26, 2019

Temp ( °F °C ) Dew Point ( °F °C ) Humidity (%) Winds ( mph kmh ) Pressure ( in mb ) Visibility ( mi km ) Precip ( " mm )
12:12 am 00:12 Cloudy with Light Rain 59 15 59 15 100 100 SSW 12 19 29.56 1001 10 16.0934 0 0
12:42 am 00:42 Cloudy with Light Rain 61 16 59 15 94 94 SSW 12 19 29.55 1001 10 16.0934 0 0
12:46 am 00:46 Cloudy with Rain 61 16 59 15 94 94 SSW 12 19 29.54 1000 10 16.0934 0 0
12:56 am 00:56 Cloudy with Light Rain 60 15.6 60 15.6 100 100 SSW 15 24 29.54 1000 10 16.0934 0 0
1:56 am 01:56 Cloudy with Light Rain 60 15.6 60 15.6 100 100 SW 12 19 29.52 1000 10 16.0934 0 0
2:56 am 02:56 Cloudy with Light Rain 59 15 59 15 100 100 SW 10 17 29.48 998 10 16.0934 0 0.0254
3:56 am 03:56 Cloudy with Rain 59 15 59 15 100 100 W 13 20 29.46 998 10 16.0934 0 0
4:56 am 04:56 Cloudy with Light Rain 57 13.9 57 13.9 100 100 W 13 20 29.46 998 9 14.48406 0 0
5:47 am 05:47 Cloudy with Light Rain 55 13 55 13 100 100 NW 7 11 29.46 998 10 16.0934 0 0
5:56 am 05:56 Cloudy with Light Rain 55 12.8 55 12.8 100 100 WNW 8 13 29.46 998 10 16.0934 0 0
6:09 am 06:09 Cloudy with Light Rain 55 13 55 13 100 100 W 10 17 29.46 998 10 16.0934 0 0
6:16 am 06:16 Cloudy with Light Rain 55 13 55 13 100 100 W 12 19 29.46 998 10 16.0934 0 0
6:56 am 06:56 Cloudy with Light Rain 55 12.8 55 12.8 100 100 W 22 35 29.46 998 10 16.0934 0 0
7:56 am 07:56 Cloudy with Rain 50 10 50 10 100 100 WNW 16 26 29.51 999 6 9.65604 0.02 0.508
8:56 am 08:56 Cloudy with Rain 48 8.9 47 8.3 96 96 WNW 21 33 29.55 1001 5 8.0467 0 0
9:56 am 09:56 Cloudy with Rain 48 8.9 48 8.9 100 100 WNW 16 26 29.57 1002 5 8.0467 0.04 1.016
10:56 am 10:56 Cloudy with Light Rain 49 9.4 49 9.4 100 100 WNW 17 28 29.61 1003 7 11.26538 0.06 1.524
11:46 am 11:46 Cloudy with Rain 50 10 48 9 94 94 WNW 21 33 29.64 1004 10 16.0934 0.03 0.762
11:56 am 11:56 Cloudy with Light Rain 49 9.4 48 8.9 97 97 WNW 20 31 29.65 1004 10 16.0934 0.04 1.016
12:56 pm 12:56 Cloudy 51 10.6 48 8.9 89 89 WNW 15 24 29.67 1005 10 16.0934 0.03 0.762
1:48 pm 13:48 Mostly Cloudy 55 13 48 9 77 77 WNW 15 24 29.69 1005 10 16.0934 0.02 0.508
1:56 pm 13:56 Mostly Cloudy 56 13.3 48 8.9 75 75 NW 16 26 29.69 1005 10 16.0934 0.02 0.508
2:56 pm 14:56 Mostly Cloudy 59 15 48 8.9 67 67 WNW 17 28 29.71 1006 10 16.0934 0.03 0.762
3:56 pm 15:56 Mostly Cloudy with Rain 56 13.3 48 8.9 75 75 W 20 31 29.72 1007 9 14.48406 0.02 0.508
4:56 pm 16:56 Cloudy 58 14.4 47 8.3 67 67 W 30 48 29.74 1007 10 16.0934 0.03 0.762
5:56 pm 17:56 Mostly Sunny 58 14.4 41 5 53 53 WNW 26 43 29.76 1008 10 16.0934 0.01 0.254
6:56 pm 18:56 Sunny 56 13.3 38 3.3 51 51 WNW 29 46 29.78 1009 10 16.0934 0.03 0.762
7:56 pm 19:56 Sunny 55 12.8 34 1.1 45 45 WNW 20 31 29.81 1010 10 16.0934 0.02 0.508
8:56 pm 20:56 Clear 51 10.6 37 2.8 59 59 W 10 17 29.84 1011 10 16.0934 0.02 0.508
9:56 pm 21:56 Clear 49 9.4 37 2.8 64 64 WNW 9 15 29.87 1012 10 16.0934 0.02 0.508
10:56 pm 22:56 Clear 48 8.9 37 2.8 66 66 WNW 9 15 29.88 1012 10 16.0934 0.02 0.508
11:56 pm 23:56 Clear 46 7.8 37 2.8 71 71 WNW 8 13 29.89 1012 10 16.0934 0.02 0.508

Powered by AerisWeather